Find Starlink 4102

NORAD ID: 53143 Int'l Des: 2022-083 Owner: SPXS Country: US Constellation: starlink operational
LEOCIRCULAR

Live Position

Loading 3D Globe...

About Starlink 4102

Description loading...

Upcoming Passes

Passes for default location (London). Set your location on the main map for personalized predictions.

Altitude History

Loading altitude history...

Two-Line Element Set

1 53143U 22083M 26107.12702900 -.00000057 00000-0 14497-4 0 9990
2 53143 53.2185 1.5692 0001283 86.5314 273.5825 15.08836072207029
Epoch: Apr 17, 2026 • Age: 12 hours

Current Status

Altitude 542.4 km
Velocity 7.59 km/s
Sub-Earth Point -8.67°S, 114.8°E
Launch Date Jul 17, 2022
Age 3.7 years
Type internet

Technical Details

Classification Payload
Mass 297.00 kg
Dry Mass 275.00 kg
Total Mass 297.00 kg
Length 0.20 m
Diameter 2.80 m
Span 9.00 m
Shape Box + pan
Manufacturer SPXS
Bus Type Starlink
Phase Status In Orbit
Owner/State SPXS/US

Most Searched